START_TIME,STEP,MOV.,A46,t_acc.,A13,t_acc.,M47,t_acc.,A17,t_acc.,A28,t_acc.,M38,t_acc.
1979-07-17 00:00:25.530 ,0,0,,0,6.,4.8,1.,4.8,,0,0.,4.8,7.,4.8
1979-07-17 00:00:30.330 ,0,0,,0,13.,4.8,2.,4.8,,0,0.,4.8,2.,4.8
1979-07-17 00:00:35.130 ,0,0,,0,12.,4.8,3.,4.8,,0,0.,4.8,3.,4.8
1979-07-17 00:00:39.930 ,0,0,,0,0.,4.8,0.,4.8,,0,0.,4.8,8.,4.8
1979-07-17 00:00:44.730 ,0,0,,0,0.,4.8,0.,4.8,,0,0.,4.8,5.,4.8
1979-07-17 00:00:49.530 ,1,0,,0,0.,4.8,0.,4.8,,0,0.,4.8,2.,4.8
1979-07-17 00:00:54.330 ,1,0,,0,0.,4.8,0.,4.8,,0,0.,4.8,9.,4.8
1979-07-17 00:00:59.130 ,1,0,,0,7.,4.8,0.,4.8,,0,0.,4.8,23.,4.8
1979-07-17 00:01:03.930 ,1,0,,0,32.,4.8,6.,4.8,,0,0.,4.8,8.,4.8
1979-07-17 00:01:08.730 ,1,0,,0,27.,4.8,7.,4.8,,0,0.,4.8,21.,4.8
1979-07-17 00:01:13.530 ,1,0,,0,44.,4.8,9.,4.8,,0,0.,4.8,15.,4.8
1979-07-17 00:01:18.330 ,1,0,,0,57.,4.8,12.,4.8,,0,0.,4.8,25.,4.8
1979-07-17 00:01:23.130 ,1,0,,0,46.,4.8,7.,4.8,,0,0.,4.8,15.,4.8
1979-07-17 00:01:27.930 ,1,0,,0,0.,4.8,0.,4.8,,0,0.,4.8,11.,4.8
1979-07-17 00:01:32.730 ,1,0,,0,0.,4.8,0.,4.8,,0,0.,4.8,16.,4.8
1979-07-17 00:01:37.530 ,2,0,,0,0.,4.8,0.,4.8,,0,0.,4.8,19.,4.8
1979-07-17 00:01:42.330 ,2,0,,0,0.,4.8,0.,4.8,,0,0.,4.8,40.,4.8
1979-07-17 00:01:47.130 ,2,0,,0,28.,4.8,4.,4.8,,0,0.,4.8,96.,4.8
1979-07-17 00:01:51.930 ,2,0,,0,172.,4.8,23.,4.8,,0,0.,4.8,76.,4.8
1979-07-17 00:01:56.730 ,2,0,,0,180.,4.8,16.,4.8,,0,0.,4.8,74.,4.8
1979-07-17 00:02:01.530 ,2,0,,0,172.,4.8,20.,4.8,,0,0.,4.8,68.,4.8
1979-07-17 00:02:06.330 ,2,0,,0,192.,4.8,33.,4.8,,0,0.,4.8,90.,4.8
1979-07-17 00:02:11.130 ,2,0,,0,156.,4.8,17.,4.8,,0,0.,4.8,61.,4.8
1979-07-17 00:02:15.930 ,2,0,,0,0.,4.8,0.,4.8,,0,0.,4.8,90.,4.8
1979-07-17 00:02:20.730 ,2,0,,0,0.,4.8,0.,4.8,,0,0.,4.8,80.,4.8
1979-07-17 00:02:25.530 ,3,0,,0,0.,4.8,0.,4.8,,0,0.,4.8,92.,4.8
1979-07-17 00:02:30.330 ,3,0,,0,0.,4.8,0.,4.8,,0,0.,4.8,68.,4.8
1979-07-17 00:02:35.130 ,3,0,,0,17.,4.8,1.,4.8,,0,0.,4.8,22.,4.8
1979-07-17 00:02:39.930 ,3,0,,0,64.,4.8,8.,4.8,,0,0.,4.8,23.,4.8
1979-07-17 00:02:44.730 ,3,0,,0,53.,4.8,5.,4.8,,0,0.,4.8,28.,4.8
1979-07-17 00:02:49.530 ,3,0,,0,57.,4.8,2.,4.8,,0,0.,4.8,29.,4.8
1979-07-17 00:02:54.330 ,3,0,,0,62.,4.8,2.,4.8,,0,0.,4.8,31.,4.8
1979-07-17 00:02:59.130 ,3,0,,0,46.,4.8,4.,4.8,,0,0.,4.8,23.,4.8
1979-07-17 00:03:03.930 ,3,0,,0,0.,4.8,0.,4.8,,0,0.,4.8,34.,4.8
1979-07-17 00:03:08.730 ,3,0,,0,0.,4.8,0.,4.8,,0,0.,4.8,21.,4.8
1979-07-17 00:03:13.530 ,4,0,,0,0.,4.8,0.,4.8,,0,0.,4.8,25.,4.8
1979-07-17 00:03:18.330 ,4,0,,0,0.,4.8,0.,4.8,,0,0.,4.8,23.,4.8
1979-07-17 00:03:23.130 ,4,0,,0,4.,4.8,1.,4.8,,0,0.,4.8,17.,4.8
1979-07-17 00:03:27.930 ,4,0,,0,38.,4.8,1.,4.8,,0,0.,4.8,14.,4.8
1979-07-17 00:03:32.730 ,4,0,,0,41.,4.8,4.,4.8,,0,0.,4.8,23.,4.8
1979-07-17 00:03:37.530 ,4,0,,0,30.,4.8,2.,4.8,,0,0.,4.8,14.,4.8
1979-07-17 00:03:42.330 ,4,0,,0,33.,4.8,5.,4.8,,0,0.,4.8,8.,4.8
1979-07-17 00:03:47.130 ,4,0,,0,19.,4.8,3.,4.8,,0,0.,4.8,15.,4.8
1979-07-17 00:03:51.930 ,4,0,,0,0.,4.8,0.,4.8,,0,0.,4.8,12.,4.8
1979-07-17 00:03:56.730 ,4,0,,0,0.,4.8,0.,4.8,,0,0.,4.8,20.,4.8
1979-07-17 00:04:01.530 ,5,0,,0,0.,4.8,0.,4.8,,0,0.,4.8,13.,4.8
1979-07-17 00:04:06.330 ,5,0,,0,0.,4.8,0.,4.8,,0,0.,4.8,16.,4.8
1979-07-17 00:04:11.130 ,5,0,,0,3.,4.8,1.,4.8,,0,0.,4.8,13.,4.8
1979-07-17 00:04:15.930 ,5,0,,0,23.,4.8,1.,4.8,,0,0.,4.8,7.,4.8
1979-07-17 00:04:20.730 ,5,0,,0,27.,4.8,1.,4.8,,0,0.,4.8,7.,4.8
1979-07-17 00:04:25.530 ,5,0,,0,32.,4.8,3.,4.8,,0,0.,4.8,12.,4.8
1979-07-17 00:04:30.330 ,5,0,,0,21.,4.8,7.,4.8,,0,0.,4.8,10.,4.8
1979-07-17 00:04:35.130 ,5,0,,0,22.,4.8,1.,4.8,,0,0.,4.8,11.,4.8
1979-07-17 00:04:39.930 ,5,0,,0,0.,4.8,0.,4.8,,0,0.,4.8,14.,4.8
1979-07-17 00:04:44.730 ,5,0,,0,0.,4.8,0.,4.8,,0,0.,4.8,10.,4.8
1979-07-17 00:04:49.530 ,6,0,,0,0.,4.8,0.,4.8,,0,0.,4.8,10.,4.8
1979-07-17 00:04:54.330 ,6,0,,0,0.,4.8,0.,4.8,,0,0.,4.8,11.,4.8
1979-07-17 00:04:59.130 ,6,0,,0,1.,4.8,1.,4.8,,0,0.,4.8,6.,4.8
1979-07-17 00:05:03.930 ,6,0,,0,15.,4.8,4.,4.8,,0,0.,4.8,10.,4.8
1979-07-17 00:05:08.730 ,6,0,,0,12.,4.8,0.,4.8,,0,0.,4.8,2.,4.8
1979-07-17 00:05:13.530 ,6,0,,0,19.,4.8,2.,4.8,,0,0.,4.8,4.,4.8
1979-07-17 00:05:18.330 ,6,0,,0,15.,4.8,7.,4.8,,0,0.,4.8,4.,4.8
1979-07-17 00:05:23.130 ,6,0,,0,14.,4.8,2.,4.8,,0,0.,4.8,3.,4.8
1979-07-17 00:05:27.930 ,6,0,,0,0.,4.8,0.,4.8,,0,0.,4.8,8.,4.8
1979-07-17 00:05:32.730 ,6,0,,0,0.,4.8,0.,4.8,,0,0.,4.8,7.,4.8
1979-07-17 00:05:37.530 ,7,0,,0,0.,4.8,0.,4.8,,0,0.,4.8,14.,4.8
1979-07-17 00:05:42.330 ,7,0,,0,0.,4.8,0.,4.8,,0,0.,4.8,2.,4.8
1979-07-17 00:05:47.130 ,7,0,,0,1.,4.8,0.,4.8,,0,0.,4.8,0.,4.8
1979-07-17 00:05:51.930 ,7,0,,0,2.,4.8,0.,4.8,,0,0.,4.8,0.,4.8
1979-07-17 00:05:56.730 ,7,0,,0,14.,4.8,0.,4.8,,0,0.,4.8,0.,4.8
1979-07-17 00:06:01.530 ,7,0,,0,8.,4.8,0.,4.8,,0,0.,4.8,0.,4.8
1979-07-17 00:06:06.330 ,7,0,,0,8.,4.8,0.,4.8,,0,0.,4.8,0.,4.8
1979-07-17 00:06:11.130 ,7,0,,0,5.,4.8,0.,4.8,,0,0.,4.8,0.,4.8
1979-07-17 00:06:15.930 ,7,0,,0,0.,4.8,0.,4.8,,0,0.,4.8,0.,4.8
1979-07-17 00:06:20.730 ,7,0,,0,1.,4.8,0.,4.8,,0,0.,4.8,0.,4.8
1979-07-17 00:06:25.530 ,7,0,,0,0.,4.8,0.,4.8,,0,0.,4.8,0.,4.8
1979-07-17 00:06:30.330 ,7,0,,0,0.,4.8,0.,4.8,,0,0.,4.8,0.,4.8
1979-07-17 00:06:35.130 ,7,0,,0,2.,4.8,0.,4.8,,0,0.,4.8,1.,4.8
1979-07-17 00:06:39.930 ,7,0,,0,12.,4.8,0.,4.8,,0,0.,4.8,0.,4.8
1979-07-17 00:06:44.730 ,7,0,,0,10.,4.8,0.,4.8,,0,0.,4.8,1.,4.8
1979-07-17 00:06:49.530 ,7,0,,0,10.,4.8,0.,4.8,,0,0.,4.8,0.,4.8
1979-07-17 00:06:54.330 ,7,0,,0,7.,4.8,0.,4.8,,0,0.,4.8,0.,4.8
1979-07-17 00:06:59.130 ,7,0,,0,4.,4.8,0.,4.8,,0,0.,4.8,0.,4.8
1979-07-17 00:07:03.930 ,7,0,,0,0.,4.8,0.,4.8,,0,0.,4.8,0.,4.8
1979-07-17 00:07:08.730 ,7,0,,0,0.,4.8,0.,4.8,,0,0.,4.8,0.,4.8
1979-07-17 00:07:13.530 ,0,0,,0,0.,4.8,0.,4.8,,0,0.,4.8,0.,4.8
1979-07-17 00:07:18.330 ,0,0,,0,0.,4.8,0.,4.8,,0,0.,4.8,2.,4.8
1979-07-17 00:07:23.130 ,0,0,,0,2.,4.8,0.,4.8,,0,0.,4.8,7.,4.8
1979-07-17 00:07:27.930 ,0,0,,0,16.,4.8,1.,4.8,,0,0.,4.8,6.,4.8
1979-07-17 00:07:32.730 ,0,0,,0,,0,,0,,0,,0,,0
1979-07-17 00:07:37.530 ,0,0,,0,,0,,0,,0,,0,,0
1979-07-17 00:07:42.330 ,0,0,,0,,0,,0,,0,,0,,0
1979-07-17 00:07:47.130 ,0,0,,0,,0,,0,,0,,0,,0
1979-07-17 00:07:51.930 ,0,0,,0,,0,,0,,0,,0,,0
1979-07-17 00:07:56.730 ,0,0,,0,,0,,0,,0,,0,,0
1979-07-17 00:07:37.530 ,6,0,,0,16.,4.8,2.,4.8,,0,0.,4.8,5.,4.8
1979-07-17 00:07:42.330 ,6,0,,0,18.,4.8,6.,4.8,,0,0.,4.8,6.,4.8
1979-07-17 00:07:47.130 ,6,0,,0,8.,4.8,1.,4.8,,0,0.,4.8,7.,4.8
1979-07-17 00:07:51.930 ,6,0,,0,0.,4.8,0.,4.8,,0,0.,4.8,6.,4.8
1979-07-17 00:07:56.730 ,6,0,,0,1.,4.8,0.,4.8,,0,0.,4.8,4.,4.8
1979-07-17 00:08:01.530 ,5,0,,0,0.,4.8,0.,4.8,,0,0.,4.8,6.,4.8
1979-07-17 00:08:06.330 ,5,0,,0,0.,4.8,0.,4.8,,0,0.,4.8,5.,4.8
1979-07-17 00:08:11.130 ,5,0,,0,2.,4.8,0.,4.8,,0,0.,4.8,8.,4.8
1979-07-17 00:08:15.930 ,5,0,,0,22.,4.8,4.,4.8,,0,0.,4.8,10.,4.8
1979-07-17 00:08:20.730 ,5,0,,0,21.,4.8,1.,4.8,,0,0.,4.8,9.,4.8
1979-07-17 00:08:25.530 ,5,0,,0,27.,4.8,1.,4.8,,0,0.,4.8,8.,4.8
1979-07-17 00:08:30.330 ,5,0,,0,17.,4.8,2.,4.8,,0,0.,4.8,10.,4.8
1979-07-17 00:08:35.130 ,5,0,,0,24.,4.8,2.,4.8,,0,0.,4.8,13.,4.8
1979-07-17 00:08:39.930 ,5,0,,0,0.,4.8,0.,4.8,,0,0.,4.8,11.,4.8
1979-07-17 00:08:44.730 ,5,0,,0,0.,4.8,0.,4.8,,0,0.,4.8,7.,4.8
1979-07-17 00:08:49.530 ,4,0,,0,0.,4.8,0.,4.8,,0,0.,4.8,5.,4.8
1979-07-17 00:08:54.330 ,4,0,,0,0.,4.8,0.,4.8,,0,0.,4.8,10.,4.8
1979-07-17 00:08:59.130 ,4,0,,0,4.,4.8,1.,4.8,,0,0.,4.8,5.,4.8
1979-07-17 00:09:03.930 ,4,0,,0,36.,4.8,4.,4.8,,0,0.,4.8,13.,4.8
1979-07-17 00:09:08.730 ,4,0,,0,31.,4.8,4.,4.8,,0,0.,4.8,13.,4.8
1979-07-17 00:09:13.530 ,4,0,,0,33.,4.8,4.,4.8,,0,0.,4.8,16.,4.8
1979-07-17 00:09:18.330 ,4,0,,0,29.,4.8,2.,4.8,,0,0.,4.8,18.,4.8
1979-07-17 00:09:23.130 ,4,0,,0,22.,4.8,1.,4.8,,0,0.,4.8,10.,4.8
1979-07-17 00:09:27.930 ,4,0,,0,0.,4.8,0.,4.8,,0,0.,4.8,13.,4.8
1979-07-17 00:09:32.730 ,4,0,,0,0.,4.8,0.,4.8,,0,0.,4.8,17.,4.8
1979-07-17 00:09:37.530 ,3,0,,0,0.,4.8,0.,4.8,,0,0.,4.8,18.,4.8
1979-07-17 00:09:42.330 ,3,0,,0,0.,4.8,0.,4.8,,0,0.,4.8,12.,4.8
1979-07-17 00:09:47.130 ,3,0,,0,3.,4.8,0.,4.8,,0,0.,4.8,16.,4.8
1979-07-17 00:09:51.930 ,3,0,,0,39.,4.8,2.,4.8,,0,0.,4.8,17.,4.8
1979-07-17 00:09:56.730 ,3,0,,0,43.,4.8,4.,4.8,,0,0.,4.8,15.,4.8
1979-07-17 00:10:01.530 ,3,0,,0,40.,4.8,4.,4.8,,0,0.,4.8,14.,4.8
1979-07-17 00:10:06.330 ,3,0,,0,34.,4.8,2.,4.8,,0,0.,4.8,27.,4.8
1979-07-17 00:10:11.130 ,3,0,,0,41.,4.8,6.,4.8,,0,0.,4.8,19.,4.8
1979-07-17 00:10:15.930 ,3,0,,0,0.,4.8,0.,4.8,,0,0.,4.8,15.,4.8
1979-07-17 00:10:20.730 ,3,0,,0,0.,4.8,0.,4.8,,0,0.,4.8,17.,4.8
1979-07-17 00:10:25.530 ,2,0,,0,0.,4.8,0.,4.8,,0,0.,4.8,19.,4.8
1979-07-17 00:10:30.330 ,2,0,,0,0.,4.8,0.,4.8,,0,0.,4.8,35.,4.8
1979-07-17 00:10:35.130 ,2,0,,0,23.,4.8,5.,4.8,,0,0.,4.8,64.,4.8
1979-07-17 00:10:39.930 ,2,0,,0,148.,4.8,20.,4.8,,0,0.,4.8,76.,4.8
1979-07-17 00:10:44.730 ,2,0,,0,152.,4.8,27.,4.8,,0,0.,4.8,53.,4.8
1979-07-17 00:10:49.530 ,2,0,,0,144.,4.8,19.,4.8,,0,0.,4.8,70.,4.8
1979-07-17 00:10:54.330 ,2,0,,0,132.,4.8,14.,4.8,,0,0.,4.8,70.,4.8
1979-07-17 00:10:59.130 ,2,0,,0,122.,4.8,18.,4.8,,0,0.,4.8,70.,4.8
1979-07-17 00:11:03.930 ,2,0,,0,0.,4.8,0.,4.8,,0,0.,4.8,66.,4.8
1979-07-17 00:11:08.730 ,2,0,,0,0.,4.8,0.,4.8,,0,0.,4.8,66.,4.8
1979-07-17 00:11:13.530 ,1,0,,0,0.,4.8,0.,4.8,,0,0.,4.8,74.,4.8
1979-07-17 00:11:18.330 ,1,0,,0,0.,4.8,0.,4.8,,0,0.,4.8,55.,4.8
1979-07-17 00:11:23.130 ,1,0,,0,7.,4.8,1.,4.8,,0,0.,4.8,22.,4.8
1979-07-17 00:11:27.930 ,1,0,,0,46.,4.8,7.,4.8,,0,0.,4.8,12.,4.8
1979-07-17 00:11:32.730 ,1,0,,0,41.,4.8,6.,4.8,,0,0.,4.8,16.,4.8
1979-07-17 00:11:37.530 ,1,0,,0,42.,4.8,6.,4.8,,0,0.,4.8,21.,4.8
1979-07-17 00:11:42.330 ,1,0,,0,41.,4.8,1.,4.8,,0,0.,4.8,14.,4.8
1979-07-17 00:11:47.130 ,1,0,,0,34.,4.8,5.,4.8,,0,0.,4.8,15.,4.8
1979-07-17 00:11:51.930 ,1,0,,0,0.,4.8,0.,4.8,,0,0.,4.8,22.,4.8
1979-07-17 00:11:56.730 ,1,0,,0,0.,4.8,0.,4.8,,0,0.,4.8,17.,4.8
1979-07-17 00:12:01.530 ,0,0,,0,0.,4.8,0.,4.8,,0,0.,4.8,18.,4.8
1979-07-17 00:12:06.330 ,0,0,,0,0.,4.8,0.,4.8,,0,0.,4.8,7.,4.8
1979-07-17 00:12:11.130 ,0,0,,0,3.,4.8,1.,4.8,,0,0.,4.8,8.,4.8
1979-07-17 00:12:15.930 ,0,0,,0,13.,4.8,1.,4.8,,0,0.,4.8,7.,4.8
1979-07-17 00:12:20.730 ,0,0,,0,16.,4.8,1.,4.8,,0,0.,4.8,7.,4.8
1979-07-17 00:12:25.530 ,0,0,,0,18.,4.8,2.,4.8,,0,0.,4.8,6.,4.8
1979-07-17 00:12:30.330 ,0,0,,0,21.,4.8,1.,4.8,,0,0.,4.8,6.,4.8
1979-07-17 00:12:35.130 ,0,0,,0,12.,4.8,2.,4.8,,0,0.,4.8,6.,4.8
1979-07-17 00:12:39.930 ,0,0,,0,0.,4.8,0.,4.8,,0,0.,4.8,5.,4.8
1979-07-17 00:12:44.730 ,0,0,,0,0.,4.8,0.,4.8,,0,0.,4.8,4.,4.8
1979-07-17 00:12:49.530 ,0,0,,0,0.,4.8,0.,4.8,,0,0.,4.8,6.,4.8
1979-07-17 00:12:54.330 ,0,0,,0,0.,4.8,0.,4.8,,0,0.,4.8,5.,4.8
1979-07-17 00:12:59.130 ,0,0,,0,2.,4.8,0.,4.8,,0,0.,4.8,9.,4.8
1979-07-17 00:13:03.930 ,0,0,,0,12.,4.8,1.,4.8,,0,0.,4.8,4.,4.8
1979-07-17 00:13:08.730 ,0,0,,0,23.,4.8,2.,4.8,,0,0.,4.8,7.,4.8
1979-07-17 00:13:13.530 ,0,0,,0,15.,4.8,2.,4.8,,0,0.,4.8,11.,4.8
1979-07-17 00:13:18.330 ,0,0,,0,8.,4.8,2.,4.8,,0,0.,4.8,3.,4.8
1979-07-17 00:13:23.130 ,0,0,,0,22.,4.8,3.,4.8,,0,0.,4.8,5.,4.8
1979-07-17 00:13:27.930 ,0,0,,0,0.,4.8,0.,4.8,,0,0.,4.8,7.,4.8
1979-07-17 00:13:32.730 ,0,0,,0,0.,4.8,0.,4.8,,0,0.,4.8,6.,4.8
1979-07-17 00:13:37.530 ,1,0,,0,0.,4.8,0.,4.8,,0,0.,4.8,7.,4.8
1979-07-17 00:13:42.330 ,1,0,,0,0.,4.8,0.,4.8,,0,0.,4.8,6.,4.8
1979-07-17 00:13:47.130 ,1,0,,0,6.,4.8,2.,4.8,,0,0.,4.8,15.,4.8
1979-07-17 00:13:51.930 ,1,0,,0,59.,4.8,12.,4.8,,0,0.,4.8,11.,4.8
1979-07-17 00:13:56.730 ,1,0,,0,43.,4.8,4.,4.8,,0,0.,4.8,15.,4.8
1979-07-17 00:14:01.530 ,1,0,,0,42.,4.8,4.,4.8,,0,0.,4.8,13.,4.8
1979-07-17 00:14:06.330 ,1,0,,0,45.,4.8,9.,4.8,,0,0.,4.8,13.,4.8
1979-07-17 00:14:11.130 ,1,0,,0,27.,4.8,2.,4.8,,0,0.,4.8,18.,4.8
1979-07-17 00:14:15.930 ,1,0,,0,0.,4.8,0.,4.8,,0,0.,4.8,15.,4.8
1979-07-17 00:14:20.730 ,1,0,,0,0.,4.8,0.,4.8,,0,0.,4.8,18.,4.8
1979-07-17 00:14:25.530 ,2,0,,0,0.,4.8,0.,4.8,,0,0.,4.8,10.,4.8
1979-07-17 00:14:30.330 ,2,0,,0,0.,4.8,0.,4.8,,0,0.,4.8,35.,4.8
1979-07-17 00:14:35.130 ,2,0,,0,22.,4.8,3.,4.8,,0,0.,4.8,70.,4.8
1979-07-17 00:14:39.930 ,2,0,,0,156.,4.8,32.,4.8,,0,0.,4.8,78.,4.8
1979-07-17 00:14:44.730 ,2,0,,0,176.,4.8,22.,4.8,,0,0.,4.8,78.,4.8
1979-07-17 00:14:49.530 ,2,0,,0,152.,4.8,22.,4.8,,0,0.,4.8,80.,4.8
1979-07-17 00:14:54.330 ,2,0,,0,168.,4.8,22.,4.8,,0,0.,4.8,70.,4.8
1979-07-17 00:14:59.130 ,2,0,,0,136.,4.8,25.,4.8,,0,0.,4.8,70.,4.8
1979-07-17 00:15:03.930 ,2,0,,0,0.,4.8,0.,4.8,,0,0.,4.8,86.,4.8
1979-07-17 00:15:08.730 ,2,0,,0,0.,4.8,0.,4.8,,0,0.,4.8,76.,4.8
1979-07-17 00:15:13.530 ,3,0,,0,0.,4.8,0.,4.8,,0,0.,4.8,68.,4.8
1979-07-17 00:15:18.330 ,3,0,,0,0.,4.8,0.,4.8,,0,0.,4.8,59.,4.8
1979-07-17 00:15:23.130 ,3,0,,0,7.,4.8,0.,4.8,,0,0.,4.8,14.,4.8
1979-07-17 00:15:27.930 ,3,0,,0,41.,4.8,5.,4.8,,0,0.,4.8,30.,4.8
1979-07-17 00:15:32.730 ,3,0,,0,47.,4.8,7.,4.8,,0,0.,4.8,23.,4.8
1979-07-17 00:15:37.530 ,3,0,,0,46.,4.8,3.,4.8,,0,0.,4.8,28.,4.8
1979-07-17 00:15:42.330 ,3,0,,0,60.,4.8,5.,4.8,,0,0.,4.8,28.,4.8
1979-07-17 00:15:47.130 ,3,0,,0,44.,4.8,7.,4.8,,0,0.,4.8,26.,4.8
1979-07-17 00:15:51.930 ,3,0,,0,0.,4.8,0.,4.8,,0,0.,4.8,24.,4.8
1979-07-17 00:15:56.730 ,3,0,,0,0.,4.8,0.,4.8,,0,0.,4.8,31.,4.8
1979-07-17 00:16:01.530 ,4,0,,0,0.,4.8,0.,4.8,,0,0.,4.8,25.,4.8
1979-07-17 00:16:06.330 ,4,0,,0,0.,4.8,0.,4.8,,0,0.,4.8,23.,4.8
1979-07-17 00:16:11.130 ,4,0,,0,6.,4.8,2.,4.8,,0,0.,4.8,14.,4.8
1979-07-17 00:16:15.930 ,4,0,,0,29.,4.8,1.,4.8,,0,0.,4.8,13.,4.8
1979-07-17 00:16:20.730 ,4,0,,0,14.,4.8,2.,4.8,,0,0.,4.8,19.,4.8
1979-07-17 00:16:25.530 ,4,0,,0,30.,4.8,3.,4.8,,0,0.,4.8,11.,4.8
1979-07-17 00:16:30.330 ,4,0,,0,43.,4.8,6.,4.8,,0,0.,4.8,10.,4.8
1979-07-17 00:16:35.130 ,4,0,,0,23.,4.8,3.,4.8,,0,0.,4.8,8.,4.8
1979-07-17 00:16:39.930 ,4,0,,0,0.,4.8,0.,4.8,,0,0.,4.8,11.,4.8
1979-07-17 00:16:44.730 ,4,0,,0,0.,4.8,0.,4.8,,0,0.,4.8,4.,4.8
1979-07-17 00:16:49.530 ,5,0,,0,0.,4.8,0.,4.8,,0,0.,4.8,10.,4.8
1979-07-17 00:16:54.330 ,5,0,,0,0.,4.8,0.,4.8,,0,0.,4.8,9.,4.8
1979-07-17 00:16:59.130 ,5,0,,0,5.,4.8,0.,4.8,,0,0.,4.8,9.,4.8
1979-07-17 00:17:03.930 ,5,0,,0,21.,4.8,3.,4.8,,0,0.,4.8,10.,4.8
1979-07-17 00:17:08.730 ,5,0,,0,21.,4.8,4.,4.8,,0,0.,4.8,9.,4.8
1979-07-17 00:17:13.530 ,5,0,,0,16.,4.8,4.,4.8,,0,0.,4.8,8.,4.8
1979-07-17 00:17:18.330 ,5,0,,0,18.,4.8,4.,4.8,,0,0.,4.8,8.,4.8
1979-07-17 00:17:23.130 ,5,0,,0,20.,4.8,1.,4.8,,0,0.,4.8,7.,4.8
1979-07-17 00:17:27.930 ,5,0,,0,0.,4.8,0.,4.8,,0,0.,4.8,7.,4.8
1979-07-17 00:17:32.730 ,5,0,,0,0.,4.8,0.,4.8,,0,0.,4.8,13.,4.8
1979-07-17 00:17:37.530 ,6,0,,0,0.,4.8,0.,4.8,,0,0.,4.8,12.,4.8
1979-07-17 00:17:42.330 ,6,0,,0,0.,4.8,0.,4.8,,0,0.,4.8,8.,4.8
1979-07-17 00:17:47.130 ,6,0,,0,3.,4.8,0.,4.8,,0,0.,4.8,2.,4.8
1979-07-17 00:17:51.930 ,6,0,,0,12.,4.8,2.,4.8,,0,0.,4.8,9.,4.8
1979-07-17 00:17:56.730 ,6,0,,0,16.,4.8,1.,4.8,,0,0.,4.8,5.,4.8
1979-07-17 00:18:01.530 ,6,0,,0,13.,4.8,1.,4.8,,0,0.,4.8,1.,4.8
1979-07-17 00:18:06.330 ,6,0,,0,16.,4.8,2.,4.8,,0,0.,4.8,7.,4.8
1979-07-17 00:18:11.130 ,6,0,,0,12.,4.8,2.,4.8,,0,0.,4.8,6.,4.8
1979-07-17 00:18:15.930 ,6,0,,0,0.,4.8,0.,4.8,,0,0.,4.8,1.,4.8
1979-07-17 00:18:20.730 ,6,0,,0,0.,4.8,0.,4.8,,0,0.,4.8,8.,4.8
1979-07-17 00:18:25.530 ,7,0,,0,0.,4.8,0.,4.8,,0,0.,4.8,4.,4.8
1979-07-17 00:18:30.330 ,7,0,,0,1.,4.8,0.,4.8,,0,0.,4.8,0.,4.8
1979-07-17 00:18:35.130 ,7,0,,0,3.,4.8,0.,4.8,,0,0.,4.8,0.,4.8
1979-07-17 00:18:39.930 ,7,0,,0,9.,4.8,0.,4.8,,0,0.,4.8,0.,4.8
1979-07-17 00:18:44.730 ,7,0,,0,5.,4.8,0.,4.8,,0,0.,4.8,0.,4.8
1979-07-17 00:18:49.530 ,7,0,,0,5.,4.8,0.,4.8,,0,0.,4.8,0.,4.8
1979-07-17 00:18:54.330 ,7,0,,0,5.,4.8,0.,4.8,,0,0.,4.8,0.,4.8
1979-07-17 00:18:59.130 ,7,0,,0,7.,4.8,0.,4.8,,0,0.,4.8,0.,4.8
1979-07-17 00:19:03.930 ,7,0,,0,0.,4.8,0.,4.8,,0,0.,4.8,0.,4.8
1979-07-17 00:19:08.730 ,7,0,,0,0.,4.8,0.,4.8,,0,0.,4.8,0.,4.8
1979-07-17 00:19:13.530 ,3,1,,0,1.,4.8,0.,4.8,,0,0.,4.8,1.,4.8
1979-07-17 00:19:18.330 ,3,1,,0,0.,4.8,0.,4.8,,0,0.,4.8,7.,4.8
1979-07-17 00:19:23.130 ,3,1,,0,3.,4.8,1.,4.8,,0,0.,4.8,11.,4.8
1979-07-17 00:19:27.930 ,3,1,,0,26.,4.8,4.,4.8,,0,0.,4.8,8.,4.8
1979-07-17 00:19:32.730 ,3,1,,0,80.,4.8,9.,4.8,,0,0.,4.8,35.,4.8
1979-07-17 00:19:37.530 ,0,1,,0,156.,4.8,14.,4.8,,0,0.,4.8,90.,4.8
1979-07-17 00:19:42.330 ,0,1,,0,160.,4.8,26.,4.8,,0,0.,4.8,70.,4.8
1979-07-17 00:19:47.130 ,0,1,,0,47.,4.8,7.,4.8,,0,0.,4.8,12.,4.8
1979-07-17 00:19:51.930 ,0,1,,0,0.,4.8,0.,4.8,,0,0.,4.8,4.,4.8
1979-07-17 00:19:56.730 ,0,1,,0,0.,4.8,0.,4.8,,0,0.,4.8,2.,4.8
1979-07-17 00:20:01.530 ,4,1,,0,0.,4.8,0.,4.8,,0,0.,4.8,11.,4.8
1979-07-17 00:20:06.330 ,4,1,,0,0.,4.8,0.,4.8,,0,0.,4.8,46.,4.8
1979-07-17 00:20:11.130 ,4,1,,0,32.,4.8,8.,4.8,,0,0.,4.8,98.,4.8
1979-07-17 00:20:15.930 ,4,1,,0,86.,4.8,7.,4.8,,0,0.,4.8,25.,4.8
1979-07-17 00:20:20.730 ,4,1,,0,41.,4.8,3.,4.8,,0,0.,4.8,15.,4.8
1979-07-17 00:20:25.530 ,7,1,,0,40.,4.8,4.,4.8,,0,0.,4.8,13.,4.8
1979-07-17 00:20:30.330 ,7,1,,0,21.,4.8,2.,4.8,,0,0.,4.8,8.,4.8
1979-07-17 00:20:35.130 ,7,1,,0,15.,4.8,1.,4.8,,0,0.,4.8,4.,4.8
1979-07-17 00:20:39.930 ,7,1,,0,0.,4.8,0.,4.8,,0,0.,4.8,0.,4.8
1979-07-17 00:20:44.730 ,7,1,,0,0.,4.8,0.,4.8,,0,0.,4.8,0.,4.8
1979-07-17 00:20:49.530 ,3,1,,0,0.,4.8,0.,4.8,,0,0.,4.8,1.,4.8
1979-07-17 00:20:54.330 ,3,1,,0,0.,4.8,0.,4.8,,0,0.,4.8,8.,4.8
1979-07-17 00:20:59.130 ,3,1,,0,4.,4.8,0.,4.8,,0,0.,4.8,8.,4.8
1979-07-17 00:21:03.930 ,3,1,,0,30.,4.8,0.,4.8,,0,0.,4.8,9.,4.8
1979-07-17 00:21:08.730 ,3,1,,0,64.,4.8,2.,4.8,,0,0.,4.8,25.,4.8
1979-07-17 00:21:13.530 ,0,1,,0,180.,4.8,19.,4.8,,0,0.,4.8,78.,4.8
1979-07-17 00:21:18.330 ,0,1,,0,196.,4.8,19.,4.8,,0,0.,4.8,90.,4.8
1979-07-17 00:21:23.130 ,0,1,,0,34.,4.8,3.,4.8,,0,0.,4.8,16.,4.8
1979-07-17 00:21:27.930 ,0,1,,0,0.,4.8,0.,4.8,,0,0.,4.8,5.,4.8
1979-07-17 00:21:32.730 ,0,1,,0,0.,4.8,0.,4.8,,0,0.,4.8,6.,4.8
1979-07-17 00:21:37.530 ,4,1,,0,0.,4.8,0.,4.8,,0,0.,4.8,16.,4.8
1979-07-17 00:21:42.330 ,4,1,,0,0.,4.8,0.,4.8,,0,0.,4.8,49.,4.8
1979-07-17 00:21:47.130 ,4,1,,0,37.,4.8,8.,4.8,,0,0.,4.8,126.,4.8
1979-07-17 00:21:51.930 ,4,1,,0,78.,4.8,8.,4.8,,0,0.,4.8,21.,4.8
1979-07-17 00:21:56.730 ,4,1,,0,32.,4.8,3.,4.8,,0,0.,4.8,12.,4.8
1979-07-17 00:22:01.530 ,7,1,,0,22.,4.8,2.,4.8,,0,0.,4.8,13.,4.8
1979-07-17 00:22:06.330 ,7,1,,0,13.,4.8,0.,4.8,,0,0.,4.8,5.,4.8
1979-07-17 00:22:11.130 ,7,1,,0,10.,4.8,0.,4.8,,0,0.,4.8,3.,4.8
1979-07-17 00:22:15.930 ,7,1,,0,0.,4.8,0.,4.8,,0,0.,4.8,0.,4.8
1979-07-17 00:22:20.730 ,7,1,,0,0.,4.8,0.,4.8,,0,0.,4.8,0.,4.8
1979-07-17 00:22:25.530 ,3,1,,0,0.,4.8,0.,4.8,,0,0.,4.8,2.,4.8
1979-07-17 00:22:30.330 ,3,1,,0,0.,4.8,0.,4.8,,0,0.,4.8,6.,4.8
1979-07-17 00:22:35.130 ,3,1,,0,5.,4.8,0.,4.8,,0,0.,4.8,9.,4.8
1979-07-17 00:22:39.930 ,3,1,,0,27.,4.8,2.,4.8,,0,0.,4.8,10.,4.8
1979-07-17 00:22:44.730 ,3,1,,0,63.,4.8,10.,4.8,,0,0.,4.8,29.,4.8
1979-07-17 00:22:49.530 ,0,1,,0,180.,4.8,25.,4.8,,0,0.,4.8,72.,4.8
1979-07-17 00:22:54.330 ,0,1,,0,164.,4.8,24.,4.8,,0,0.,4.8,84.,4.8
1979-07-17 00:22:59.130 ,0,1,,0,45.,4.8,6.,4.8,,0,0.,4.8,19.,4.8
1979-07-17 00:23:03.930 ,0,1,,0,0.,4.8,0.,4.8,,0,0.,4.8,2.,4.8
1979-07-17 00:23:08.730 ,0,1,,0,0.,4.8,0.,4.8,,0,0.,4.8,3.,4.8
1979-07-17 00:23:13.530 ,4,1,,0,0.,4.8,0.,4.8,,0,0.,4.8,13.,4.8
1979-07-17 00:23:18.330 ,4,1,,0,0.,4.8,0.,4.8,,0,0.,4.8,59.,4.8
1979-07-17 00:23:23.130 ,4,1,,0,29.,4.8,0.,4.8,,0,0.,4.8,104.,4.8
1979-07-17 00:23:27.930 ,4,1,,0,68.,4.8,9.,4.8,,0,0.,4.8,31.,4.8
1979-07-17 00:23:32.730 ,4,1,,0,33.,4.8,0.,4.8,,0,0.,4.8,15.,4.8
1979-07-17 00:23:37.530 ,7,1,,0,23.,4.8,3.,4.8,,0,0.,4.8,17.,4.8
1979-07-17 00:23:42.330 ,7,1,,0,24.,4.8,2.,4.8,,0,0.,4.8,11.,4.8
1979-07-17 00:23:47.130 ,7,1,,0,12.,4.8,2.,4.8,,0,0.,4.8,5.,4.8
1979-07-17 00:23:51.930 ,7,1,,0,0.,4.8,0.,4.8,,0,0.,4.8,0.,4.8
1979-07-17 00:23:56.730 ,7,1,,0,0.,4.8,0.,4.8,,0,0.,4.8,0.,4.8
1979-07-17 00:24:01.530 ,3,1,,0,0.,4.8,0.,4.8,,0,0.,4.8,3.,4.8
1979-07-17 00:24:06.330 ,3,1,,0,0.,4.8,0.,4.8,,0,0.,4.8,6.,4.8
1979-07-17 00:24:11.130 ,3,1,,0,3.,4.8,0.,4.8,,0,0.,4.8,13.,4.8
1979-07-17 00:24:15.930 ,3,1,,0,34.,4.8,4.,4.8,,0,0.,4.8,7.,4.8
1979-07-17 00:24:20.730 ,3,1,,0,37.,4.8,4.,4.8,,0,0.,4.8,14.,4.8
1979-07-17 00:24:25.530 ,0,1,,0,180.,4.8,23.,4.8,,0,0.,4.8,56.,4.8
1979-07-17 00:24:30.330 ,0,1,,0,188.,4.8,30.,4.8,,0,0.,4.8,80.,4.8
1979-07-17 00:24:35.130 ,0,1,,0,49.,4.8,6.,4.8,,0,0.,4.8,30.,4.8
1979-07-17 00:24:39.930 ,0,1,,0,0.,4.8,0.,4.8,,0,0.,4.8,5.,4.8
1979-07-17 00:24:44.730 ,0,1,,0,0.,4.8,0.,4.8,,0,0.,4.8,0.,4.8
1979-07-17 00:24:49.530 ,4,1,,0,0.,4.8,0.,4.8,,0,0.,4.8,14.,4.8
1979-07-17 00:24:54.330 ,4,1,,0,0.,4.8,0.,4.8,,0,0.,4.8,38.,4.8
1979-07-17 00:24:59.130 ,4,1,,0,31.,4.8,4.,4.8,,0,0.,4.8,106.,4.8
1979-07-17 00:25:03.930 ,4,1,,0,46.,4.8,3.,4.8,,0,0.,4.8,24.,4.8
1979-07-17 00:25:08.730 ,4,1,,0,25.,4.8,1.,4.8,,0,0.,4.8,9.,4.8
1979-07-17 00:25:13.530 ,7,1,,0,24.,4.8,3.,4.8,,0,0.,4.8,4.,4.8
1979-07-17 00:25:18.330 ,7,1,,0,21.,4.8,3.,4.8,,0,0.,4.8,8.,4.8
1979-07-17 00:25:23.130 ,7,1,,0,15.,4.8,2.,4.8,,0,0.,4.8,6.,4.8
1979-07-17 00:25:27.930 ,7,1,,0,0.,4.8,0.,4.8,,0,0.,4.8,0.,4.8
1979-07-17 00:25:32.730 ,7,1,,0,0.,4.8,0.,4.8,,0,0.,4.8,0.,4.8
1979-07-17 00:25:37.530 ,3,1,,0,0.,4.8,0.,4.8,,0,0.,4.8,5.,4.8
1979-07-17 00:25:42.330 ,3,1,,0,0.,4.8,0.,4.8,,0,0.,4.8,11.,4.8
1979-07-17 00:25:47.130 ,3,1,,0,3.,4.8,1.,4.8,,0,0.,4.8,7.,4.8
1979-07-17 00:25:51.930 ,3,1,,0,30.,4.8,5.,4.8,,0,0.,4.8,18.,4.8
1979-07-17 00:25:56.730 ,3,1,,0,35.,4.8,3.,4.8,,0,0.,4.8,14.,4.8
1979-07-17 00:26:01.530 ,0,1,,0,118.,4.8,20.,4.8,,0,0.,4.8,68.,4.8
1979-07-17 00:26:06.330 ,0,1,,0,156.,4.8,26.,4.8,,0,0.,4.8,63.,4.8
1979-07-17 00:26:11.130 ,0,1,,0,51.,4.8,5.,4.8,,0,0.,4.8,24.,4.8
1979-07-17 00:26:15.930 ,0,1,,0,0.,4.8,0.,4.8,,0,0.,4.8,6.,4.8
1979-07-17 00:26:20.730 ,0,1,,0,0.,4.8,0.,4.8,,0,0.,4.8,2.,4.8
1979-07-17 00:26:25.530 ,4,1,,0,0.,4.8,0.,4.8,,0,0.,4.8,13.,4.8
1979-07-17 00:26:30.330 ,4,1,,0,0.,4.8,0.,4.8,,0,0.,4.8,51.,4.8
1979-07-17 00:26:35.130 ,4,1,,0,23.,4.8,3.,4.8,,0,0.,4.8,88.,4.8
1979-07-17 00:26:39.930 ,4,1,,0,37.,4.8,3.,4.8,,0,0.,4.8,16.,4.8
1979-07-17 00:26:44.730 ,4,1,,0,25.,4.8,2.,4.8,,0,0.,4.8,16.,4.8
1979-07-17 00:26:49.530 ,7,1,,0,20.,4.8,0.,4.8,,0,0.,4.8,7.,4.8
1979-07-17 00:26:54.330 ,7,1,,0,14.,4.8,2.,4.8,,0,0.,4.8,5.,4.8
1979-07-17 00:26:59.130 ,7,1,,0,8.,4.8,1.,4.8,,0,0.,4.8,6.,4.8
1979-07-17 00:27:03.930 ,7,1,,0,0.,4.8,0.,4.8,,0,0.,4.8,0.,4.8
1979-07-17 00:27:08.730 ,7,1,,0,0.,4.8,0.,4.8,,0,0.,4.8,0.,4.8
1979-07-17 00:27:13.530 ,3,1,,0,0.,4.8,0.,4.8,,0,0.,4.8,2.,4.8
1979-07-17 00:27:18.330 ,3,1,,0,0.,4.8,0.,4.8,,0,0.,4.8,8.,4.8
1979-07-17 00:27:23.130 ,3,1,,0,4.,4.8,0.,4.8,,0,0.,4.8,9.,4.8
1979-07-17 00:27:27.930 ,3,1,,0,21.,4.8,1.,4.8,,0,0.,4.8,19.,4.8
1979-07-17 00:27:32.730 ,3,1,,0,43.,4.8,5.,4.8,,0,0.,4.8,22.,4.8
1979-07-17 00:27:37.530 ,0,1,,0,122.,4.8,10.,4.8,,0,0.,4.8,60.,4.8
1979-07-17 00:27:42.330 ,0,1,,0,144.,4.8,17.,4.8,,0,0.,4.8,74.,4.8
1979-07-17 00:27:47.130 ,0,1,,0,46.,4.8,10.,4.8,,0,0.,4.8,24.,4.8
1979-07-17 00:27:51.930 ,0,1,,0,0.,4.8,0.,4.8,,0,0.,4.8,9.,4.8
1979-07-17 00:27:56.730 ,0,1,,0,0.,4.8,0.,4.8,,0,0.,4.8,2.,4.8
1979-07-17 00:28:01.530 ,4,1,,0,0.,4.8,0.,4.8,,0,0.,4.8,18.,4.8
1979-07-17 00:28:06.330 ,4,1,,0,0.,4.8,0.,4.8,,0,0.,4.8,41.,4.8
1979-07-17 00:28:11.130 ,4,1,,0,12.,4.8,2.,4.8,,0,0.,4.8,66.,4.8
1979-07-17 00:28:15.930 ,4,1,,0,40.,4.8,6.,4.8,,0,0.,4.8,17.,4.8
1979-07-17 00:28:20.730 ,4,1,,0,31.,4.8,2.,4.8,,0,0.,4.8,14.,4.8
1979-07-17 00:28:25.530 ,7,1,,0,20.,4.8,2.,4.8,,0,0.,4.8,15.,4.8
1979-07-17 00:28:30.330 ,7,1,,0,27.,4.8,3.,4.8,,0,0.,4.8,9.,4.8
1979-07-17 00:28:35.130 ,7,1,,0,13.,4.8,4.,4.8,,0,0.,4.8,4.,4.8
1979-07-17 00:28:39.930 ,7,1,,0,0.,4.8,0.,4.8,,0,0.,4.8,0.,4.8
1979-07-17 00:28:44.730 ,7,1,,0,0.,4.8,0.,4.8,,0,0.,4.8,0.,4.8
1979-07-17 00:28:49.530 ,3,1,,0,0.,4.8,0.,4.8,,0,0.,4.8,5.,4.8
1979-07-17 00:28:54.330 ,3,1,,0,0.,4.8,0.,4.8,,0,0.,4.8,5.,4.8
1979-07-17 00:28:59.130 ,3,1,,0,3.,4.8,1.,4.8,,0,0.,4.8,6.,4.8
1979-07-17 00:29:03.930 ,3,1,,0,30.,4.8,2.,4.8,,0,0.,4.8,13.,4.8
1979-07-17 00:29:08.730 ,3,1,,0,44.,4.8,9.,4.8,,0,0.,4.8,23.,4.8
1979-07-17 00:29:13.530 ,0,1,,0,108.,4.8,32.,4.8,,0,0.,4.8,51.,4.8
1979-07-17 00:29:18.330 ,0,1,,0,132.,4.8,36.,4.8,,0,0.,4.8,46.,4.8
1979-07-17 00:29:23.130 ,0,1,,0,38.,4.8,3.,4.8,,0,0.,4.8,12.,4.8